Lamar, CO

2:48 PM MST on December 03, 2016 (GMT -0700)
Lamar Municipal

Weather History for KLAA - May, 2013

Change the Weather History Date:

Saturday, May 25, 2013

  Actual Average Record
Temperature  
Mean Temperature 84 °F 65 °F  
Max Temperature 100 °F 81 °F 100 °F (1967)
Min Temperature 67 °F 49 °F 34 °F (2002)
Degree Days  
Heating Degree Days 0 2  
Month to date heating degree days 170 129  
Since 1 July heating degree days 5490 5529  
Cooling Degree Days 19 3  
Month to date cooling degree days 95 36  
Year to date cooling degree days 97 41  
Growing Degree Days 34 (Base 50)    
Moisture  
Dew Point 40 °F    
Average Humidity 29    
Maximum Humidity 53    
Minimum Humidity 5    
Precipitation  
Precipitation 0.00 in 0.09 in 2.02 in (1944)
Month to date precipitation 0.24  
Year to date precipitation 0.57  
Sea Level Pressure  
Sea Level Pressure 29.73 in    
Wind  
Wind Speed 17 mph (SSW)    
Max Wind Speed 40 mph    
Max Gust Speed 56 mph    
Visibility 9 miles    
Events Thunderstorm    
T = Trace of Precipitation, MM = Missing Value Source: NWS Daily Summary

Daily Weather History Graph

Daily Weather History Graph

Search for Another Location

Airport or City:

Trip Planner

Search our weather history database for the weather conditions in past years. The results will help you decide how hot, cold, wet, or windy it might be!

Date:

Astronomy

May. 25, 2013 Rise Set
Actual Time 5:32 AM MDT 8:03 PM MDT
Civil Twilight 5:02 AM MDT 8:33 PM MDT
Nautical Twilight 4:24 AM MDT 9:11 PM MDT
Astronomical Twilight 3:43 AM MDT 9:53 PM MDT
Moon 8:53 PM MDT (5/25) 6:01 AM MDT (5/25)
Length of Visible Light 15h 31m
Length of Day
14h 30m
Waxing Gibbous, 99% of the Moon is Illuminated
May 25
Waxing Gibbous
May 31
Last Quarter
Jun 8
New
Jun 16
First Quarter
Jun 23
Full

Hourly Weather History & Observations

Time (MDT) Temp. Dew Point Humidity Pressure Visibility Wind Dir Wind Speed Gust Speed Precip Events Conditions
12:53 AM 73.0 °F 39.9 °F 30% 29.73 in 10.0 mi South 29.9 mph 40.3 mph N/A   Clear
1:25 AM 71.6 °F 41.0 °F 33% 29.93 in 3.0 mi South 28.8 mph 42.6 mph N/A   Haze
1:53 AM 68.0 °F 46.9 °F 47% 29.78 in 7.0 mi South 28.8 mph 46.0 mph N/A   Clear
2:53 AM 68.0 °F 48.0 °F 49% 29.77 in 10.0 mi SSW 24.2 mph 33.4 mph N/A   Clear
3:53 AM 68.0 °F 50.0 °F 52% 29.75 in 10.0 mi SSW 24.2 mph 34.5 mph N/A   Clear
4:53 AM 69.1 °F 51.1 °F 53% 29.76 in 10.0 mi WSW 4.6 mph - N/A   Clear
5:53 AM 68.0 °F 48.9 °F 50% 29.80 in 9.0 mi WNW 3.5 mph - N/A   Clear
6:23 AM 73.4 °F 51.8 °F 47% 29.95 in 9.0 mi WSW 15.0 mph 31.1 mph N/A   Clear
6:53 AM 73.0 °F 52.0 °F 48% 29.78 in 9.0 mi SW 19.6 mph 24.2 mph N/A   Clear
7:53 AM 78.1 °F 51.1 °F 39% 29.78 in 9.0 mi WSW 26.5 mph 31.1 mph N/A   Clear
8:53 AM 82.9 °F 48.9 °F 31% 29.78 in 9.0 mi WSW 23.0 mph 31.1 mph N/A   Clear
9:53 AM 84.9 °F 48.9 °F 29% 29.77 in 9.0 mi SSW 12.7 mph 23.0 mph N/A   Clear
10:53 AM 88.0 °F 46.0 °F 23% 29.75 in 10.0 mi Variable 6.9 mph - N/A   Clear
11:53 AM 89.1 °F 44.1 °F 21% 29.73 in 10.0 mi Calm Calm - N/A   Clear
12:53 PM 93.9 °F 39.9 °F 15% 29.70 in 10.0 mi SSW 9.2 mph - N/A   Clear
1:53 PM 95.0 °F 34.0 °F 12% 29.67 in 10.0 mi West 10.4 mph - N/A   Clear
2:53 PM 98.1 °F 28.9 °F 9% 29.65 in 10.0 mi SSW 15.0 mph 23.0 mph N/A   Clear
3:53 PM 99.0 °F 21.0 °F 6% 29.62 in 10.0 mi West 12.7 mph 24.2 mph N/A   Clear
4:53 PM 96.1 °F 17.1 °F 6% 29.60 in 10.0 mi West 5.8 mph - N/A   Clear
5:53 PM 96.1 °F 16.0 °F 5% 29.59 in 10.0 mi SW 12.7 mph 19.6 mph N/A   Clear
6:53 PM 96.1 °F 15.1 °F 5% 29.56 in 10.0 mi West 10.4 mph 16.1 mph N/A   Clear
7:53 PM 91.0 °F 19.9 °F 7% 29.57 in 9.0 mi SW 17.3 mph 26.5 mph N/A   Scattered Clouds
8:53 PM 84.0 °F 32.0 °F 15% 29.59 in 10.0 mi South 13.8 mph - N/A   Clear
9:18 PM 87.8 °F 32.0 °F 14% 29.77 in 10.0 mi SSW 29.9 mph 39.1 mph N/A Thunderstorm Clear
9:33 PM 84.2 °F 35.6 °F 18% 29.78 in 8.0 mi South 31.1 mph 42.6 mph N/A   Clear
9:41 PM 82.4 °F 44.6 °F 26% 29.78 in 6.0 mi South 35.7 mph 47.2 mph N/A Thunderstorm Haze
9:53 PM 82.0 °F 48.0 °F 30% 29.60 in 4.0 mi South 42.6 mph 49.5 mph N/A Thunderstorm Haze
10:02 PM 82.4 °F 48.2 °F 30% 29.79 in 5.0 mi South 40.3 mph 51.8 mph N/A   Haze
10:35 PM 82.4 °F 37.4 °F 20% 29.78 in 8.0 mi South 34.5 mph 54.1 mph N/A Thunderstorm Clear
10:53 PM 79.0 °F 42.1 °F 27% 29.62 in 10.0 mi SSE 35.7 mph 46.0 mph N/A Thunderstorm Clear
11:06 PM 78.8 °F 48.2 °F 34% 29.81 in 8.0 mi SE 36.8 mph 49.5 mph N/A   Clear
11:53 PM 73.9 °F 52.0 °F 46% 29.68 in 9.0 mi SSE 28.8 mph 41.4 mph N/A   Clear